Weather History for KPTT - October, 2014

Change the Weather History Date:

Sunday, October 26, 2014

  Actual Average (KP28) Record (KP28)
Temperature  
Mean Temperature 73 °F 55 °F  
Max Temperature 87 °F 67 °F 95 °F (1922)
Min Temperature 59 °F 42 °F 24 °F (1957)
Degree Days  
Heating Degree Days 0 11  
Month to date heating degree days 178  
Since 1 July heating degree days 212  
Cooling Degree Days 8 0  
Month to date cooling degree days 37  
Year to date cooling degree days 1768  
Growing Degree Days 23 (Base 50)    
Moisture  
Dew Point 48 °F    
Average Humidity 50    
Maximum Humidity 72    
Minimum Humidity 19    
Precipitation  
Precipitation 0.00 in 0.08 in 1.90 in (1918)
Month to date precipitation 2.45  
Year to date precipitation 24.90  
Snow  
Snow 0.00 in 0.00 in - ()
Month to date snowfall 0.0  
Since 1 July snowfall 0.0  
Since 1 September snowfall 0.0  
Snow Depth -    
Sea Level Pressure  
Sea Level Pressure 29.76 in    
Wind  
Wind Speed 12 mph (SSW)    
Max Wind Speed 21 mph    
Max Gust Speed 28 mph    
Visibility 10 miles    
Events      
T = Trace of Precipitation, MM = Missing Value Source: NWS Daily Summary

Daily Weather History Graph

Daily Weather History Graph

Search for Another Location

Airport or City:

Trip Planner

Search our weather history database for the weather conditions in past years. The results will help you decide how hot, cold, wet, or windy it might be!

Date:

Astronomy

Oct. 26, 2014 Rise Set
Actual Time 7:54 AM CDT 6:43 PM CDT
Civil Twilight 7:27 AM CDT 7:10 PM CDT
Nautical Twilight 6:56 AM CDT 7:40 PM CDT
Astronomical Twilight 6:26 AM CDT 8:11 PM CDT
Moon 10:31 AM CDT (10/26) 8:58 PM CDT (10/26)
Length of Visible Light 11h 42m
Length of Day
10h 49m
Waxing Crescent, 8% of the Moon is Illuminated
Oct 26
Waxing Crescent
Oct 30
First Quarter
Nov 6
Full
Nov 14
Last Quarter
Nov 22
New

Hourly Weather History & Observations

Time (CDT) Temp. Dew Point Humidity Pressure Visibility Wind Dir Wind Speed Gust Speed Precip Events Conditions
12:15 AM 60.8 °F 51.8 °F 72% 29.95 in 10.0 mi South 9.2 mph - N/A   Clear
12:35 AM 62.6 °F 51.8 °F 68% 29.95 in 10.0 mi South 10.4 mph - N/A   Clear
12:55 AM 62.6 °F 51.8 °F 68% 29.94 in 10.0 mi South 10.4 mph - N/A   Clear
1:15 AM 64.4 °F 50.0 °F 59% 29.93 in 10.0 mi South 12.7 mph - N/A   Clear
1:35 AM 64.4 °F 50.0 °F 59% 29.93 in 10.0 mi South 12.7 mph - N/A   Clear
1:55 AM 62.6 °F 50.0 °F 63% 29.93 in 10.0 mi SSW 10.4 mph - N/A   Clear
2:15 AM 62.6 °F 50.0 °F 63% 29.92 in 10.0 mi SSW 11.5 mph - N/A   Clear
2:35 AM 62.6 °F 50.0 °F 63% 29.91 in 10.0 mi SSW 10.4 mph - N/A   Clear
2:55 AM 60.8 °F 50.0 °F 68% 29.92 in 10.0 mi SSW 6.9 mph - N/A   Clear
3:15 AM 59.0 °F 50.0 °F 72% 29.91 in 10.0 mi SSW 6.9 mph - N/A   Clear
3:35 AM 59.0 °F 50.0 °F 72% 29.90 in 10.0 mi South 8.1 mph - N/A   Clear
3:55 AM 60.8 °F 50.0 °F 68% 29.89 in 10.0 mi South 8.1 mph - N/A   Clear
4:15 AM 62.6 °F 50.0 °F 63% 29.88 in 10.0 mi SSE 5.8 mph - N/A   Clear
4:35 AM 62.6 °F 50.0 °F 63% 29.88 in 10.0 mi South 8.1 mph - N/A   Clear
4:55 AM 60.8 °F 50.0 °F 68% 29.87 in 10.0 mi South 9.2 mph - N/A   Clear
5:15 AM 60.8 °F 50.0 °F 68% 29.86 in 10.0 mi South 9.2 mph - N/A   Clear
5:35 AM 60.8 °F 50.0 °F 68% 29.86 in 10.0 mi SSE 8.1 mph - N/A   Clear
5:55 AM 60.8 °F 50.0 °F 68% 29.85 in 10.0 mi SSE 6.9 mph - N/A   Clear
6:15 AM 60.8 °F 50.0 °F 68% 29.85 in 10.0 mi South 6.9 mph - N/A   Clear
6:35 AM 59.0 °F 50.0 °F 72% 29.83 in 10.0 mi South 10.4 mph - N/A   Clear
6:55 AM 59.0 °F 50.0 °F 72% 29.83 in 10.0 mi South 12.7 mph - N/A   Clear
7:15 AM 59.0 °F 50.0 °F 72% 29.82 in 10.0 mi South 11.5 mph - N/A   Clear
7:35 AM 60.8 °F 50.0 °F 68% 29.81 in 10.0 mi South 11.5 mph - N/A   Clear
7:55 AM 59.0 °F 50.0 °F 72% 29.81 in 10.0 mi South 10.4 mph - N/A   Clear
8:15 AM 59.0 °F 50.0 °F 72% 29.80 in 10.0 mi SSE 13.8 mph - N/A   Clear
8:35 AM 60.8 °F 50.0 °F 68% 29.80 in 10.0 mi South 13.8 mph - N/A   Clear
8:55 AM 60.8 °F 50.0 °F 68% 29.79 in 10.0 mi South 17.3 mph - N/A   Clear
9:15 AM 62.6 °F 50.0 °F 63% 29.79 in 10.0 mi South 19.6 mph 27.6 mph N/A   Clear
9:35 AM 64.4 °F 50.0 °F 59% 29.78 in 10.0 mi South 20.7 mph - N/A   Clear
9:55 AM 66.2 °F 50.0 °F 56% 29.78 in 10.0 mi South 20.7 mph 26.5 mph N/A   Clear
10:15 AM 68.0 °F 50.0 °F 52% 29.77 in 10.0 mi SSW 20.7 mph - N/A   Clear
10:35 AM 69.8 °F 50.0 °F 49% 29.77 in 10.0 mi SSW 20.7 mph - N/A   Clear
10:55 AM 71.6 °F 50.0 °F 46% 29.78 in 10.0 mi SSW 19.6 mph 25.3 mph N/A   Clear
11:15 AM 73.4 °F 50.0 °F 44% 29.77 in 10.0 mi SW 20.7 mph 27.6 mph N/A   Clear
11:35 AM 75.2 °F 46.4 °F 36% 29.76 in 10.0 mi SSW 20.7 mph - N/A   Clear
11:55 AM 77.0 °F 46.4 °F 34% 29.76 in 10.0 mi SSW 19.6 mph - N/A   Clear
12:15 PM 78.8 °F 46.4 °F 32% 29.75 in 10.0 mi SSW 20.7 mph - N/A   Clear
12:35 PM 80.6 °F 46.4 °F 30% 29.75 in 10.0 mi SW 18.4 mph - N/A   Clear
12:55 PM 80.6 °F 44.6 °F 28% 29.73 in 10.0 mi SSW 20.7 mph 26.5 mph N/A   Clear
1:15 PM 82.4 °F 44.6 °F 26% 29.73 in 10.0 mi SSW 20.7 mph 25.3 mph N/A   Clear
1:35 PM 82.4 °F 44.6 °F 26% 29.71 in 10.0 mi SW 19.6 mph - N/A   Clear
1:55 PM 84.2 °F 44.6 °F 25% 29.71 in 10.0 mi SSW 18.4 mph 23.0 mph N/A   Clear
2:15 PM 86.0 °F 44.6 °F 23% 29.69 in 10.0 mi SSW 17.3 mph - N/A   Clear
2:35 PM 86.0 °F 46.4 °F 25% 29.69 in 10.0 mi SSW 15.0 mph - N/A   Clear
2:55 PM 86.0 °F 44.6 °F 23% 29.68 in 10.0 mi SW 15.0 mph 21.9 mph N/A   Clear
3:15 PM 87.8 °F 44.6 °F 22% 29.67 in 10.0 mi SSW 17.3 mph 23.0 mph N/A   Clear
3:35 PM 87.8 °F 44.6 °F 22% 29.66 in 10.0 mi SW 18.4 mph 23.0 mph N/A   Clear
3:55 PM 87.8 °F 42.8 °F 21% 29.66 in 10.0 mi SW 16.1 mph 24.2 mph N/A   Clear
4:15 PM 87.8 °F 41.0 °F 19% 29.66 in 10.0 mi SW 16.1 mph 24.2 mph N/A   Clear
4:35 PM 87.8 °F 41.0 °F 19% 29.65 in 10.0 mi SW 12.7 mph - N/A   Clear
4:55 PM 86.0 °F 41.0 °F 20% 29.65 in 10.0 mi SW 13.8 mph - N/A   Clear
5:15 PM 86.0 °F 42.8 °F 22% 29.65 in 10.0 mi SW 9.2 mph - N/A   Clear
5:35 PM 84.2 °F 44.6 °F 25% 29.65 in 10.0 mi SW 8.1 mph - N/A   Clear
5:55 PM 80.6 °F 44.6 °F 28% 29.65 in 10.0 mi SW 8.1 mph - N/A   Clear
6:15 PM 80.6 °F 42.8 °F 26% 29.64 in 10.0 mi SSW 10.4 mph - N/A   Clear
6:35 PM 78.8 °F 42.8 °F 28% 29.64 in 10.0 mi SSW 10.4 mph - N/A   Clear
6:55 PM 75.2 °F 41.0 °F 29% 29.65 in 10.0 mi South 12.7 mph - N/A   Clear
7:15 PM 73.4 °F 46.4 °F 38% 29.65 in 10.0 mi SSW 9.2 mph - N/A   Clear
7:35 PM 71.6 °F 50.0 °F 46% 29.65 in 10.0 mi SSW 9.2 mph - N/A   Clear
7:55 PM 69.8 °F 51.8 °F 53% 29.66 in 10.0 mi South 9.2 mph - N/A   Clear
8:15 PM 69.8 °F 51.8 °F 53% 29.66 in 10.0 mi South 8.1 mph - N/A   Clear
8:35 PM 69.8 °F 51.8 °F 53% 29.67 in 10.0 mi WNW 13.8 mph 18.4 mph N/A   Clear
8:55 PM 73.4 °F 51.8 °F 47% 29.67 in 10.0 mi WSW 9.2 mph 18.4 mph N/A   Clear
9:15 PM 69.8 °F 51.8 °F 53% 29.67 in 10.0 mi SSW 9.2 mph - N/A   Clear
9:35 PM 68.0 °F 51.8 °F 56% 29.67 in 10.0 mi SSW 8.1 mph - N/A   Clear
9:55 PM 68.0 °F 51.8 °F 56% 29.67 in 10.0 mi South 9.2 mph - N/A   Clear
10:15 PM 64.4 °F 51.8 °F 64% 29.67 in 10.0 mi SSW 10.4 mph - N/A   Clear
10:35 PM 68.0 °F 51.8 °F 56% 29.66 in 10.0 mi SSW 9.2 mph - N/A   Clear
10:55 PM 64.4 °F 51.8 °F 64% 29.66 in 10.0 mi South 9.2 mph - N/A   Clear
11:15 PM 64.4 °F 51.8 °F 64% 29.65 in 10.0 mi South 8.1 mph - N/A   Clear
11:35 PM 62.6 °F 51.8 °F 68% 29.65 in 10.0 mi SSE 3.5 mph - N/A   Clear
11:55 PM 64.4 °F 51.8 °F 64% 29.64 in 10.0 mi SSE 4.6 mph - N/A   Clear